Saipan, MP

7:24 AM ChST on June 27, 2017 (GMT +1000)
Saipan International

Weather History for PGSN - October, 2012

Change the Weather History Date:

Sunday, October 7, 2012

  Actual Average Record
Temperature  
Mean Temperature 80 °F -  
Max Temperature 86 °F 84 °F 89 °F (2016)
Min Temperature 75 °F 76 °F 73 °F (2007)
Cooling Degree Days 16    
Growing Degree Days 30 (Base 50)    
Moisture  
Dew Point 75 °F    
Average Humidity 84    
Maximum Humidity 94    
Minimum Humidity 74    
Precipitation  
Precipitation 1.29 in - - ()
Sea Level Pressure  
Sea Level Pressure 29.82 in    
Wind  
Wind Speed 8 mph (ESE)    
Max Wind Speed 16 mph    
Max Gust Speed 25 mph    
Visibility 7 miles    
Events Fog , Rain    
Averages and records for this station are not official NWS values.
T = Trace of Precipitation, MM = Missing Value Source: NWS Daily Summary

Daily Weather History Graph

Daily Weather History Graph

Search for Another Location

Airport or City:

Trip Planner

Search our weather history database for the weather conditions in past years. The results will help you decide how hot, cold, wet, or windy it might be!

Date:

Astronomy

Oct. 07, 2012 Rise Set
Actual Time 6:07 AM ChST 6:02 PM ChST
Civil Twilight 5:46 AM ChST 6:23 PM ChST
Nautical Twilight 5:21 AM ChST 6:48 PM ChST
Astronomical Twilight 4:56 AM ChST 7:13 PM ChST
Moon 11:14 PM ChST (10/7) 11:37 AM ChST (10/7)
Length of Visible Light 12h 37m
Length of Day
11h 54m
Waning Gibbous, 62% of the Moon is Illuminated
Oct 7
Waning Gibbous
Oct 8
Last Quarter
Oct 15
New
Oct 22
First Quarter
Oct 30
Full

Hourly Weather History & Observations

Time (ChST) Temp. Heat Index Dew Point Humidity Pressure Visibility Wind Dir Wind Speed Gust Speed Precip Events Conditions
12:54 AM 78.1 °F - 73.9 °F 87% 29.87 in 2.5 mi ESE 8.1 mph - 0.17 in Rain Heavy Rain
1:04 AM 78.8 °F - 73.4 °F 83% 29.80 in 7.0 mi East 8.1 mph - 0.03 in Rain Rain
1:54 AM 78.1 °F - 73.9 °F 87% 29.83 in 6.0 mi East 9.2 mph - 0.07 in Rain Rain
1:59 AM 78.8 °F - 75.2 °F 89% 29.77 in 4.0 mi ESE 9.2 mph - 0.00 in Rain Rain
2:07 AM 78.8 °F - 75.2 °F 89% 29.78 in 3.0 mi East 9.2 mph - 0.00 in Rain Rain
2:22 AM 78.8 °F - 75.2 °F 89% 29.79 in 10.0 mi ESE 8.1 mph - 0.01 in Rain Rain
2:41 AM 78.8 °F - 75.2 °F 89% 29.78 in 7.0 mi East 9.2 mph - 0.03 in Rain Rain
2:54 AM 79.0 °F - 75.0 °F 88% 29.84 in 4.0 mi East 9.2 mph - 0.07 in Rain Rain
3:48 AM 80.6 °F 86.2 °F 75.2 °F 84% 29.78 in 5.0 mi ESE 6.9 mph - 0.22 in Rain Rain
3:54 AM 79.0 °F - 75.9 °F 90% 29.85 in 7.0 mi SE 8.1 mph - 0.23 in Rain Rain
4:01 AM 78.8 °F - 75.2 °F 89% 29.78 in 7.0 mi ESE 8.1 mph - 0.01 in Rain Light Rain
4:54 AM 80.1 °F 85.1 °F 75.0 °F 85% 29.84 in 7.0 mi ESE 8.1 mph - 0.03 in Rain Light Rain
5:06 AM 80.6 °F 86.2 °F 75.2 °F 84% 29.77 in 10.0 mi ESE 8.1 mph - 0.00 in Rain Light Rain
5:32 AM 80.6 °F 86.2 °F 75.2 °F 84% 29.77 in 8.0 mi ESE 8.1 mph - 0.01 in Rain Light Rain
5:54 AM 80.1 °F 85.1 °F 75.0 °F 85% 29.83 in 8.0 mi SE 8.1 mph - 0.03 in Rain Light Rain
6:29 AM 78.8 °F - 73.4 °F 83% 29.77 in 1.8 mi ESE 6.9 mph - 0.02 in Rain Light Rain
6:43 AM 78.8 °F - 73.4 °F 83% 29.76 in 10.0 mi ESE 8.1 mph - 0.02 in Rain Light Rain
6:54 AM 80.1 °F 85.1 °F 75.0 °F 85% 29.83 in 10.0 mi ESE 9.2 mph - 0.02 in Rain Light Rain
7:54 AM 82.0 °F 89.4 °F 75.9 °F 82% 29.86 in 10.0 mi ESE 8.1 mph - 0.01 in Rain Light Rain
8:54 AM 84.9 °F 95.3 °F 77.0 °F 77% 29.87 in 10.0 mi SE 6.9 mph - 0.00 in   Clear
9:01 AM 84.2 °F 94.1 °F 77.0 °F 79% 29.81 in 1.2 mi SE 6.9 mph - N/A   Haze
9:08 AM 84.2 °F 92.3 °F 75.2 °F 74% 29.81 in 10.0 mi SE 6.9 mph - N/A   Clear
9:54 AM 84.9 °F 94.1 °F 75.9 °F 74% 29.89 in 10.0 mi SE 6.9 mph - N/A   Partly Cloudy
10:54 AM 86.0 °F 96.9 °F 77.0 °F 74% 29.88 in 10.0 mi SSE 5.8 mph - N/A   Partly Cloudy
11:22 AM 82.4 °F 90.9 °F 77.0 °F 84% 29.81 in 2.0 mi South 16.1 mph 25.3 mph 0.00 in Rain Light Rain
11:29 AM 80.6 °F 86.2 °F 75.2 °F 84% 29.81 in 1.5 mi SSE 11.5 mph 25.3 mph 0.33 in Rain Heavy Rain
11:47 AM 75.2 °F - 73.4 °F 94% 29.80 in 3.0 mi Calm Calm - 0.49 in Rain Light Rain
11:54 AM 77.0 °F - 73.0 °F 88% 29.86 in 5.0 mi Calm Calm - 0.50 in Rain Light Rain
12:54 PM 78.1 °F - 73.9 °F 87% 29.82 in 10.0 mi Calm Calm - 0.07 in   Mostly Cloudy
1:54 PM 79.0 °F - 75.0 °F 88% 29.83 in 7.0 mi East 8.1 mph - 0.04 in Rain Light Rain
2:54 PM 80.1 °F 85.4 °F 75.9 °F 87% 29.80 in 7.0 mi East 13.8 mph - 0.04 in Rain Rain
3:54 PM 80.1 °F 85.4 °F 75.9 °F 87% 29.80 in 0.5 mi ESE 10.4 mph - 0.01 in Fog Fog
4:01 PM 80.6 °F 86.2 °F 75.2 °F 84% 29.74 in 10.0 mi ESE 12.7 mph - N/A   Mostly Cloudy
4:54 PM 80.1 °F 85.1 °F 75.0 °F 85% 29.81 in 10.0 mi ESE 10.4 mph 20.7 mph N/A   Scattered Clouds
5:54 PM 80.1 °F 85.1 °F 75.0 °F 85% 29.82 in 10.0 mi ESE 8.1 mph - N/A   Scattered Clouds
6:54 PM 81.0 °F 86.7 °F 75.0 °F 82% 29.85 in 10.0 mi SE 8.1 mph - N/A   Scattered Clouds
7:54 PM 81.0 °F 87.3 °F 75.9 °F 85% 29.86 in 10.0 mi ESE 9.2 mph - N/A   Scattered Clouds
8:54 PM 81.0 °F 86.2 °F 73.9 °F 79% 29.86 in 10.0 mi ESE 5.8 mph - N/A   Clear
9:54 PM 81.0 °F 87.3 °F 75.9 °F 85% 29.86 in 10.0 mi ESE 6.9 mph - N/A   Scattered Clouds
10:01 PM 80.6 °F 86.2 °F 75.2 °F 84% 29.79 in 10.0 mi ESE 8.1 mph - N/A   Mostly Cloudy
10:10 PM 80.6 °F 86.2 °F 75.2 °F 84% 29.79 in 10.0 mi ESE 10.4 mph - N/A   Scattered Clouds
10:54 PM 82.0 °F 90.2 °F 77.0 °F 85% 29.85 in 10.0 mi ESE 12.7 mph - 0.00 in Rain Light Rain
11:54 PM 82.0 °F 89.4 °F 75.9 °F 82% 29.83 in 10.0 mi ESE 10.4 mph - 0.00 in   Scattered Clouds